Regional Weather Roundup
Issued by NWS

Home | Current Version | Previous Version | Text Only | Print | Product List | Glossary Off
Versions: 1 2 3 4 5 6 7 8 9 10 11 12 13 14 15 16 17 18 19 20 21 22 23 24 25 26 27 28 29 30 31 32 33 34 35 36 37 38 39 40 41 42 43 44 45 46 47 48 49 50

272
ASUS45 KBOU 030707
RWRCO

WEATHER ROUNDUP FOR COLORADO
NATIONAL WEATHER SERVICE DENVER/BOULDER CO
100 AM MDT TUE MAY 03 2016

NOTE: "FAIR" INDICATES FEW OR NO CLOUDS BELOW 12000 FEET WITH NO
SIGNIFICANT WEATHER AND/OR OBSTRUCTIONS TO VISIBILITY.

COZ001>005-013-030-031-030800-
...NORTHWEST COLORADO...

CITY           SKY/WX    TMP DP  RH WIND       PRES   REMARKS
CRAIG          FAIR      36  24  62 CALM      30.23R
HAYDEN         FAIR      37  23  56 CALM      30.23R
MEEKER         FAIR      37  27  67 E3        30.24R
MOUNT WERNER   NOT AVBL
STEAMBOAT SPGS FAIR      36  23  59 CALM      30.24R
WALDEN         FAIR      25  18  74 E7        30.28R WCI  17
$$

COZ006>008-011-030800-
...WEST CENTRAL VALLEYS...

CITY           SKY/WX    TMP DP  RH WIND       PRES   REMARKS
GRAND JUNCTION FAIR      44  37  76 CALM      30.17R
MONTROSE       FAIR      44  31  60 SE8       30.22S
EAGLE          FAIR      39  28  65 E6        30.26R
RIFLE          FAIR      40  31  70 SE6       30.20R
DELTA          NOT AVBL
NUCLA          NOT AVBL
$$

COZ017>023-064>068-030800-
...SOUTHWEST COLORADO...

CITY           SKY/WX    TMP DP  RH WIND       PRES   REMARKS
DURANGO        FAIR      35  32  88 CALM      30.21S
CORTEZ         FAIR      36  33  89 NE6       30.21R
PAGOSA SPRINGS FAIR      33  33  96 CALM      30.25S
TELLURIDE      FAIR      33  30  90 SE3       30.32R
WOLF CREEK PAS FAIR      23  23 100 N7        30.38S WCI  15
$$

COZ009-010-012-014-032>034-037-058>063-030800-
...CENTRAL COLORADO...

CITY           SKY/WX    TMP DP  RH WIND       PRES   REMARKS
ASPEN          FAIR      35  26  69 SW7       30.25R WCI  29
BUENA VISTA    FAIR      38  27  63 NW9       30.23S
COPPER MTN     NOT AVBL
BERTHOUD PASS  LGT SNOW  18   9  68 N22G31    30.32S WCI   0
COTTONWOOD PAS FAIR      36  23  60 NW8       30.27F
GUNNISON       FAIR      36  25  64 NW3       30.28R
KREMMLING      FAIR      34  25  69 CALM      30.26R
LEADVILLE      FAIR      25  18  74 N6        30.29S WCI  18
MONARCH PASS   FAIR      27  21  80 MISG      30.45S
SALIDA         FAIR      38  28  67 W7        30.30S
SUNLIGHT       FAIR      32  23  69 N3        30.38S
WILKERSON PASS FAIR      28  19  69 N13G24    30.33S WCI  18
$$

COZ069>075-030800-
...SAN LUIS VALLEY/SANGRE DE CRISTO MOUNTAINS...

CITY           SKY/WX    TMP DP  RH WIND       PRES   REMARKS
ALAMOSA        FAIR      34  31  88 S3        30.21S
LA VETA PASS   FAIR      32  28  86 MISG      30.27S
SAGUACHE       FAIR      37  28  70 N9        30.24R
$$

COZ035-036-038>040-030800-
...NORTHERN COLORADO FRONT RANGE...

CITY           SKY/WX    TMP DP  RH WIND       PRES   REMARKS
DENVER INTL AP FAIR      42  28  57 W6        30.15R
DMNS CITY PARK   N/A     43  29  57 N5G10     30.17R
AURORA         FAIR      41  28  58 SW6       30.16R
FRONT RANGE AP NOT AVBL
ERIE MUNI ARPT FAIR      37  35  91 CALM      30.16R
BOULDER MUN AP FAIR      45  32  61 CALM      30.16R
CENTENNIAL     MOCLDY    40  28  62 E3        30.16R
BROOMFIELD     FAIR      45  32  61 N12       30.17R
FORT COLLINS   FAIR      45  28  53 N8        30.16S
LONGMONT       FAIR      43  33  67 W6        30.17R
$$

COZ041-046-047-076>085-087-088-030800-
...PIKES PEAK/PALMER DIVIDE AND SOUTHERN FOOTHILLS...

CITY           SKY/WX    TMP DP  RH WIND       PRES   REMARKS
COLO. SPRINGS  FAIR      40  24  53 NW5       30.17F
A. F. ACADEMY  FAIR      32  25  74 N6        30.17S WCI  26
SCHRIEVER AFB  NOT AVBL
ELLICOTT       FAIR     N/A N/A N/A CALM      30.15F
FALCON         MOCLDY    38  24  57 W8        30.19S
FORT CARSON    FAIR      37  29  72 NW6       30.15S
LIMON          FAIR      34  30  85 W9        30.12S WCI  27
MONUMENT HILL  CLOUDY    34  27  75 W7        30.20S WCI  28
TRINIDAD       FAIR      38  33  82 W9        30.15R
$$

COZ042>045-048>051-090-091-030800-
...NORTHEAST COLORADO...

CITY           SKY/WX    TMP DP  RH WIND       PRES   REMARKS
GREELEY ARPT   FAIR      43  30  61 W5        30.15R
AKRON          CLOUDY    47  33  58 N21G33    30.09R
BURLINGTON     MOCLDY    43  33  68 W7        30.08F
WRAY           NOT AVBL
STERLING       MOCLDY    45  36  70 E5        30.07F
HOLYOKE        NOT AVBL
FORT MORGAN    FAIR      45  32  61 N17       30.11R
$$

COZ086-089-092>099-030800-
...SOUTHEAST COLORADO...

CITY           SKY/WX    TMP DP  RH WIND       PRES   REMARKS
PUEBLO         FAIR      42  33  70 SW8       30.13S
LA JUNTA       CLOUDY    47  34  60 W12       30.10F
LAMAR          FAIR      42  36  79 W7        30.07F
SPRINGFIELD      N/A     36  33  89 SW8       30.11F
$$




USA.gov is the U.S. government's official web portal to all federal, state and local government web resources and services.